#timestamp,LO_Frequency,Hit,StdDev 
1578870015.5,286047000.4,N
1578870035.4,286047002.6,N
1578870055.2,286047001.6,N
1578870075.0,286047002.3,N
1578870075.9,286047002.3,N
1578870095.8,286047000.1,N
1578870115.6,286047000.2,N
1578870135.4,286047000.5,N
1578870155.3,286047002.8,N
1578870175.1,286046999.8,N
1578870195.9,286046999.9,N
1578870215.7,286046999.7,N
1578870235.5,286046999.9,N
1578870255.4,286047002.7,N
1578870275.2,286046999.8,N
1578870295.0,286047002.2,N
1578870295.9,286047002.2,N
1578870315.8,286046999.7,N
1578870335.6,286047000.6,N
1578870355.5,286047000.3,N
1578870375.3,286047001.9,N
1578870395.1,286047001.3,N
1578870415.9,286047001.5,N
1578870435.7,286047004.0,N
1578870455.5,286047001.7,N
1578870475.4,286047001.5,N
1578870495.2,286047004.1,N
1578870515.1,286047003.1,N
1578870516.0,286047003.1,N
1578870535.8,286047003.3,N
1578870555.6,286047004.5,Y
1578870575.5,286047007.6,P
1578870595.3,286047007.0,N
1578870615.1,286047005.3,N
1578870635.9,286047005.7,N
1578870655.7,286047004.1,N
1578870675.6,286047000.9,N
1578870695.4,286046998.7,N
1578870745.3,286046999.0,E
1578870755.2,286046999.0,N
1578870775.0,286046998.5,P
1578870775.9,286046998.5,P
1578870795.8,286047000.8,Y
1578870815.6,286047002.7,P
1578870835.4,286047002.6,N
1578870855.3,286047000.2,N
1578870875.1,286047002.6,N
1578870895.9,286047004.3,N
1578870915.7,286047002.3,N
1578870935.5,286047000.7,N
1578870955.4,286047000.5,N
1578870975.2,286046999.7,N
1578870995.0,286046998.6,N
1578870995.9,286046998.6,N
1578871015.8,286046996.9,N
1578871035.6,286046999.1,N
1578871055.4,286046999.2,N
1578871075.3,286046997.2,N
1578871095.1,286046996.5,N
1578871115.9,286046996.7,N
1578871135.7,286046997.5,N
1578871155.5,286046997.9,N
1578871175.4,286046997.1,N
1578871195.2,286046995.1,N
1578871215.0,286046997.9,N
1578871215.9,286046997.9,N
1578871235.8,286046997.4,N
1578871255.6,286046997.9,N
1578871275.5,286046995.7,N
1578871295.3,286046998.0,N
1578871315.1,286046997.9,N
1578871335.9,286046994.9,N
1578871355.7,286046997.7,N
1578871375.5,286046997.4,N
1578871395.4,286046995.0,N
1578871415.2,286046997.5,N
1578871435.1,286046996.0,N
1578871436.0,286046996.0,N
1578871455.8,286046994.4,Y
1578871475.6,286046995.4,P
1578871495.5,286046995.7,P
1578871515.3,286046995.4,P
1578871535.1,286046997.1,Y
1578871555.9,286047004.2,P
1578871575.7,286047004.4,N
1578871595.6,286047004.4,N
1578871615.4,286047003.6,N
1578871635.2,286047006.0,N
1578871655.1,286047005.4,N
1578871656.0,286047005.4,N
1578871675.8,286047005.8,N
1578871695.7,286047002.9,N
1578871715.5,286047005.5,N
1578871735.3,286047003.1,N
1578871755.2,286047004.1,N
1578871775.9,286047001.7,N
1578871795.7,286047004.2,N
1578871815.6,286047003.9,N
1578871835.4,286047001.4,N
1578871855.2,286047001.5,N
1578871875.1,286047001.9,N
1578871876.0,286047001.9,N
1578871895.8,286047001.5,N
1578871915.7,286047002.4,N
1578871935.5,286047002.8,N
1578871955.3,286047000.2,N
1578871975.2,286047002.2,N
1578871995.0,286047002.6,N
1578871995.9,286047002.6,N
1578872015.7,286046999.8,N
1578872035.6,286047001.4,N
1578872055.4,286047003.9,N
1578872075.3,286047001.5,N
1578872095.1,286047004.4,N
1578872096.0,286047004.4,N
1578872115.8,286047003.5,N
1578872135.7,286047004.1,N
1578872155.5,286047003.9,N
1578872175.4,286047006.0,Y
1578872195.2,286046999.8,P
1578872215.0,286047002.1,N
1578872215.9,286047002.1,N
1578872235.8,286047002.0,N
1578872255.6,286047002.7,N
1578872275.4,286046999.7,N
1578872295.3,286047001.1,N
1578872315.1,286047002.3,N
1578872335.8,286047002.3,N
1578872355.7,286047002.5,N
1578872375.5,286047001.9,N
1578872395.4,286047004.4,Y
1578872415.2,286047000.3,P
1578872435.0,286047002.8,P
1578872435.9,286047002.8,N
1578872455.8,286046999.7,N
1578872475.6,286047002.2,N
1578872495.5,286047002.0,N
1578872515.3,286047001.3,N
1578872535.1,286047002.3,N
1578872555.9,286047001.5,N
1578872575.7,286047004.2,Y
1578872595.5,286047002.5,P
1578872615.4,286047001.5,P
1578872635.2,286047003.6,P
1578872655.1,286047005.3,Y
1578872656.0,286047005.3,P
1578872675.8,286047003.6,N
1578872695.6,286047003.3,N
1578872715.5,286047005.8,Y
1578872735.3,286047001.7,P
15788727551578873535.4,286046996.8,P
1578873555.3,286046997.3,N
1578873575.1,286046997.7,N
1578873595.9,286046997.7,Y
